| time (UTC) | temp F | wind direction | speed knots | gust knots | rain 1hr in | rain 24hr in | rain mn in | humidity % | barometer mb |
| 20260506123510 | 76 | 247 | 5.2 | 8.7 | 0.00 | 0.00 | 0.00 | 29 | 1016.1 |
| 20260506123014 | 76 | 249 | 5.2 | 8.7 | 0.00 | 0.00 | 0.00 | 28 | 1016.2 |
| 20260506122511 | 75 | 246 | 6.1 | 8.7 | 0.00 | 0.00 | 0.00 | 30 | 1016.2 |
| 20260506122010 | 75 | 258 | 6.1 | 8.7 | 0.00 | 0.00 | 0.00 | 30 | 1016.1 |
| 20260506121510 | 76 | 271 | 5.2 | 8.7 | 0.00 | 0.00 | 0.00 | 31 | 1016.2 |
| 20260506121011 | 76 | 245 | 5.2 | 7.0 | 0.00 | 0.00 | 0.00 | 32 | 1016.3 |
| 20260506120510 | 76 | 226 | 6.1 | 7.8 | 0.00 | 0.00 | 0.00 | 30 | 1016.2 |
| 20260506120010 | 76 | 263 | 6.1 | 7.8 | 0.00 | 0.00 | 0.00 | 32 | 1016.3 |
| 20260506115511 | 76 | 239 | 6.1 | 8.7 | 0.00 | 0.00 | 0.00 | 28 | 1016.3 |
| 20260506115011 | 76 | 222 | 6.1 | 8.7 | 0.00 | 0.00 | 0.00 | 28 | 1016.3 |
| 20260506114511 | 76 | 259 | 6.1 | 7.8 | 0.00 | 0.00 | 0.00 | 31 | 1016.3 |
| 20260506113510 | 76 | 199 | 6.1 | 9.6 | 0.00 | 0.00 | 0.00 | 32 | 1016.2 |
| 20260506113010 | 76 | 181 | 6.1 | 9.6 | 0.00 | 0.00 | 0.00 | 32 | 1016.4 |
| 20260506112011 | 76 | 192 | 6.1 | 7.8 | 0.00 | 0.00 | 0.00 | 32 | 1016.3 |
| 20260506110510 | 76 | 223 | 5.2 | 7.0 | 0.00 | 0.00 | 0.00 | 32 | 1016.3 |
| 20260506110010 | 76 | 244 | 4.3 | 7.0 | 0.00 | 0.00 | 0.00 | 32 | 1016.4 |
| 20260506105511 | 77 | 244 | 4.3 | 4.3 | 0.00 | 0.00 | 0.00 | 32 | 1016.4 |
| 20260506104510 | 76 | 216 | 3.5 | 5.2 | 0.00 | 0.00 | 0.00 | 32 | 1016.5 |
| 20260506104011 | 76 | 203 | 3.5 | 4.3 | 0.00 | 0.00 | 0.00 | 32 | 1016.5 |
| 20260506103511 | 76 | 220 | 4.3 | 6.1 | 0.00 | 0.00 | 0.00 | 33 | 1016.4 |
| 20260506103010 | 75 | 208 | 5.2 | 6.1 | 0.00 | 0.00 | 0.00 | 34 | 1016.5 |
| 20260506102010 | 76 | 248 | 4.3 | 5.2 | 0.00 | 0.00 | 0.00 | 34 | 1016.6 |
| 20260506101510 | 75 | 251 | 3.5 | 7.0 | 0.00 | 0.00 | 0.00 | 35 | 1016.6 |
| 20260506101011 | 75 | 247 | 4.3 | 7.0 | 0.00 | 0.00 | 0.00 | 34 | 1016.6 |
| 20260506100510 | 75 | 263 | 4.3 | 6.1 | 0.00 | 0.00 | 0.00 | 34 | 1016.5 |
| 20260506100010 | 75 | 236 | 3.5 | 6.1 | 0.00 | 0.00 | 0.00 | 34 | 1016.5 |
| 20260506095510 | 75 | 201 | 4.3 | 6.1 | 0.00 | 0.00 | 0.00 | 34 | 1016.6 |
| 20260506094510 | 75 | 235 | 5.2 | 7.0 | 0.00 | 0.00 | 0.00 | 33 | 1016.6 |
| 20260506094010 | 75 | 252 | 4.3 | 6.1 | 0.00 | 0.00 | 0.00 | 33 | 1016.6 |
| 20260506093010 | 74 | 153 | 4.3 | 7.0 | 0.00 | 0.00 | 0.00 | 34 | 1016.6 |
| 20260506092510 | 74 | 175 | 4.3 | 7.0 | 0.00 | 0.00 | 0.00 | 33 | 1016.7 |
| 20260506092010 | 74 | 194 | 3.5 | 4.3 | 0.00 | 0.00 | 0.00 | 33 | 1016.7 |
| 20260506091510 | 74 | 209 | 3.5 | 4.3 | 0.00 | 0.00 | 0.00 | 34 | 1016.8 |
| 20260506091010 | 74 | 185 | 4.3 | 8.7 | 0.00 | 0.00 | 0.00 | 34 | 1016.7 |
| 20260506090510 | 74 | 173 | 4.3 | 8.7 | 0.00 | 0.00 | 0.00 | 34 | 1016.7 |
| 20260506085510 | 74 | 210 | 2.6 | 3.5 | 0.00 | 0.00 | 0.00 | 34 | 1016.8 |
| 20260506084010 | 73 | 261 | 3.5 | 5.2 | 0.00 | 0.00 | 0.00 | 34 | 1016.6 |
| 20260506083510 | 73 | 254 | 3.5 | 4.3 | 0.00 | 0.00 | 0.00 | 34 | 1016.7 |
| 20260506083010 | 72 | 254 | 3.5 | 4.3 | 0.00 | 0.00 | 0.00 | 37 | 1016.6 |
| 20260506082510 | 72 | 263 | 3.5 | 4.3 | 0.00 | 0.00 | 0.00 | 38 | 1016.7 |
| 20260506082011 | 72 | 247 | 4.3 | 7.0 | 0.00 | 0.00 | 0.00 | 39 | 1016.6 |
| 20260506081510 | 72 | 178 | 4.3 | 7.0 | 0.00 | 0.00 | 0.00 | 40 | 1016.6 |
| 20260506081010 | 72 | 187 | 3.5 | 6.1 | 0.00 | 0.00 | 0.00 | 41 | 1016.7 |
| 20260506073510 | 71 | 224 | 2.6 | 3.5 | 0.00 | 0.00 | 0.00 | 43 | 1016.4 |
| 20260506073010 | 71 | 147 | 2.6 | 4.3 | 0.00 | 0.00 | 0.00 | 42 | 1016.2 |
| 20260506072510 | 70 | 128 | 4.3 | 4.3 | 0.00 | 0.00 | 0.00 | 42 | 1016.2 |
| 20260506072010 | 69 | 130 | 4.3 | 5.2 | 0.00 | 0.00 | 0.00 | 42 | 1016.2 |
| 20260506071510 | 69 | 155 | 2.6 | 5.2 | 0.00 | 0.00 | 0.00 | 41 | 1016.3 |
| 20260506071011 | 70 | 190 | 1.7 | 2.6 | 0.00 | 0.00 | 0.00 | 43 | 1016.3 |
| 20260506070510 | 70 | 190 | 1.7 | 2.6 | 0.00 | 0.00 | 0.00 | 42 | 1016.1 |
| 20260506062510 | 67 | 119 | 2.6 | 4.3 | 0.00 | 0.00 | 0.00 | 45 | 1016.3 |
| 20260506061010 | 66 | 150 | 2.6 | 3.5 | 0.00 | 0.00 | 0.00 | 45 | 1016.2 |
| 20260506060510 | 66 | 151 | 2.6 | 3.5 | 0.00 | 0.00 | 0.00 | 46 | 1016.0 |
| 20260506051009 | 63 | 155 | 2.6 | 3.5 | 0.00 | 0.00 | 0.00 | 55 | 1015.7 |
| 20260506050510 | 63 | 125 | 2.6 | 3.5 | 0.00 | 0.00 | 0.00 | 53 | 1015.8 |
| 20260506045012 | 62 | 97 | 2.6 | 2.6 | 0.00 | 0.00 | 0.00 | 57 | 1015.7 |
| 20260506044510 | 62 | 101 | 1.7 | 2.6 | 0.00 | 0.00 | 0.00 | 57 | 1015.5 |
| 20260506043509 | 61 | 96 | 2.6 | 3.5 | 0.00 | 0.00 | 0.00 | 58 | 1015.6 |
| 20260506043010 | 61 | 90 | 2.6 | 3.5 | 0.00 | 0.00 | 0.00 | 58 | 1015.5 |
| 20260506042510 | 60 | 105 | 2.6 | 3.5 | 0.00 | 0.00 | 0.00 | 58 | 1015.6 |
| 20260506042010 | 60 | 115 | 2.6 | 3.5 | 0.00 | 0.00 | 0.00 | 58 | 1015.6 |
| 20260506041011 | 60 | 91 | 2.6 | 3.5 | 0.00 | 0.00 | 0.00 | 59 | 1015.4 |
| 20260506040509 | 59 | 99 | 1.7 | 2.6 | 0.00 | 0.00 | 0.00 | 60 | 1015.4 |
| 20260506040010 | 59 | 104 | 1.7 | 2.6 | 0.00 | 0.00 | 0.00 | 60 | 1015.5 |
| 20260506035510 | 59 | 118 | 1.7 | 1.7 | 0.00 | 0.00 | 0.00 | 60 | 1015.4 |
| 20260506035010 | 59 | 131 | 1.7 | 2.6 | 0.00 | 0.00 | 0.00 | 60 | 1015.3 |
| 20260506034509 | 59 | 128 | 1.7 | 2.6 | 0.00 | 0.00 | 0.00 | 60 | 1015.2 |
| 20260506033509 | 60 | 103 | 1.7 | 2.6 | 0.00 | 0.00 | 0.00 | 60 | 1015.1 |
| 20260506033010 | 59 | 116 | 1.7 | 1.7 | 0.00 | 0.00 | 0.00 | 60 | 1015.1 |
| 20260506032510 | 60 | 135 | 0.9 | 1.7 | 0.00 | 0.00 | 0.00 | 60 | 1015.1 |
| 20260506032010 | 60 | 113 | 0.9 | 1.7 | 0.00 | 0.00 | 0.00 | 60 | 1015.1 |
| 20260506031509 | 59 | 90 | 1.7 | 1.7 | 0.00 | 0.00 | 0.00 | 62 | 1015.0 |
| 20260506031010 | 59 | 87 | 1.7 | 2.6 | 0.00 | 0.00 | 0.00 | 62 | 1015.0 |
| 20260506030510 | 59 | 94 | 2.6 | 3.5 | 0.00 | 0.00 | 0.00 | 62 | 1015.0 |
| 20260506030015 | 59 | 93 | 2.6 | 3.5 | 0.00 | 0.00 | 0.00 | 62 | 1015.0 |
| 20260506025510 | 59 | 91 | 2.6 | 3.5 | 0.00 | 0.00 | 0.00 | 63 | 1014.9 |
| 20260506025012 | 59 | 99 | 2.6 | 2.6 | 0.00 | 0.00 | 0.00 | 63 | 1014.9 |
| 20260506024510 | 59 | 94 | 2.6 | 2.6 | 0.00 | 0.00 | 0.00 | 63 | 1015.0 |
| 20260506024009 | 59 | 96 | 2.6 | 2.6 | 0.00 | 0.00 | 0.00 | 63 | 1015.0 |
| 20260506023509 | 59 | 99 | 2.6 | 2.6 | 0.00 | 0.00 | 0.00 | 63 | 1015.0 |
| 20260506023010 | 59 | 104 | 1.7 | 3.5 | 0.00 | 0.00 | 0.00 | 63 | 1015.0 |
| 20260506022509 | 59 | 120 | 1.7 | 3.5 | 0.00 | 0.00 | 0.00 | 62 | 1015.2 |
| 20260506022010 | 60 | 111 | 1.7 | 3.5 | 0.00 | 0.00 | 0.00 | 62 | 1015.0 |
| 20260506021510 | 60 | 96 | 1.7 | 2.6 | 0.00 | 0.00 | 0.00 | 61 | 1015.1 |
| 20260506020510 | 60 | 91 | 2.6 | 2.6 | 0.00 | 0.00 | 0.00 | 61 | 1015.1 |
| 20260506020010 | 61 | 94 | 2.6 | 2.6 | 0.00 | 0.00 | 0.00 | 60 | 1015.2 |
| 20260506014510 | 61 | 107 | 1.7 | 2.6 | 0.00 | 0.00 | 0.00 | 59 | 1015.3 |
| 20260506014009 | 61 | 109 | 1.7 | 1.7 | 0.00 | 0.00 | 0.00 | 60 | 1015.2 |
| 20260506013511 | 61 | 105 | 1.7 | 1.7 | 0.00 | 0.00 | 0.00 | 60 | 1015.2 |
| 20260506013011 | 61 | 106 | 1.7 | 1.7 | 0.00 | 0.00 | 0.00 | 61 | 1015.4 |
| 20260506012509 | 60 | 93 | 1.7 | 1.7 | 0.00 | 0.00 | 0.00 | 62 | 1015.2 |
| 20260506011509 | 60 | 116 | 1.7 | 2.6 | 0.00 | 0.00 | 0.00 | 62 | 1015.3 |
| 20260506011009 | 60 | 108 | 2.6 | 3.5 | 0.00 | 0.00 | 0.00 | 63 | 1015.3 |
| 20260506010510 | 60 | 90 | 2.6 | 3.5 | 0.00 | 0.00 | 0.00 | 63 | 1015.4 |
| 20260506010010 | 60 | 94 | 3.5 | 3.5 | 0.00 | 0.00 | 0.00 | 63 | 1015.3 |
| 20260506005509 | 60 | 90 | 2.6 | 3.5 | 0.00 | 0.00 | 0.00 | 63 | 1015.2 |
| 20260506005010 | 59 | 87 | 1.7 | 2.6 | 0.00 | 0.00 | 0.00 | 63 | 1015.4 |
| 20260506004509 | 60 | 111 | 1.7 | 2.6 | 0.00 | 0.00 | 0.00 | 62 | 1015.5 |
| 20260506004009 | 60 | 122 | 1.7 | 2.6 | 0.00 | 0.00 | 0.00 | 62 | 1015.3 |
| 20260506003513 | 60 | 110 | 1.7 | 2.6 | 0.00 | 0.00 | 0.00 | 62 | 1015.3 |
| 20260506003009 | 60 | 99 | 2.6 | 2.6 | 0.00 | 0.00 | 0.00 | 62 | 1015.5 |
| 20260506002509 | 60 | 88 | 2.6 | 2.6 | 0.00 | 0.00 | 0.00 | 62 | 1015.5 |
| 20260506001019 | 60 | 113 | 1.7 | 3.5 | 0.00 | 0.00 | 0.00 | 62 | 1015.5 |
| 20260506000511 | 60 | 108 | 1.7 | 3.5 | 0.00 | 0.00 | 0.00 | 62 | 1015.4 |
| 20260505235512 | 60 | 133 | 1.7 | 2.6 | 0.00 | 0.00 | 0.00 | 62 | 1015.5 |
| 20260505235010 | 61 | 135 | 1.7 | 2.6 | 0.00 | 0.00 | 0.00 | 61 | 1015.4 |
| 20260505234509 | 61 | 136 | 1.7 | 2.6 | 0.00 | 0.00 | 0.00 | 61 | 1015.5 |
| 20260505233510 | 61 | 102 | 0.9 | 1.7 | 0.00 | 0.00 | 0.00 | 59 | 1015.5 |
| 20260505233013 | 61 | 114 | 1.7 | 1.7 | 0.00 | 0.00 | 0.00 | 58 | 1015.7 |
| 20260505232510 | 61 | 118 | 0.9 | 1.7 | 0.00 | 0.00 | 0.00 | 58 | 1015.7 |
| 20260505231511 | 62 | 135 | 1.7 | 1.7 | 0.00 | 0.00 | 0.00 | 57 | 1015.7 |
| 20260505231009 | 62 | 135 | 1.7 | 1.7 | 0.00 | 0.00 | 0.00 | 57 | 1015.7 |
| 20260505230010 | 62 | 155 | 1.7 | 1.7 | 0.00 | 0.00 | 0.00 | 56 | 1015.8 |
| 20260505225509 | 62 | 160 | 0.9 | 1.7 | 0.00 | 0.00 | 0.00 | 56 | 1015.7 |
| 20260505225011 | 62 | 162 | 0.9 | 1.7 | 0.00 | 0.00 | 0.00 | 55 | 1015.8 |
| 20260505224510 | 62 | 181 | 0.0 | 0.9 | 0.00 | 0.00 | 0.00 | 54 | 1015.9 |
| 20260505224009 | 62 | 135 | 0.0 | 0.9 | 0.00 | 0.00 | 0.00 | 54 | 1015.7 |
| 20260505223009 | 62 | 260 | 0.0 | 1.7 | 0.00 | 0.00 | 0.00 | 55 | 1015.9 |
| 20260505222509 | 62 | 270 | 0.9 | 1.7 | 0.00 | 0.00 | 0.00 | 54 | 1015.9 |
| 20260505222010 | 62 | 270 | 0.0 | 1.7 | 0.00 | 0.00 | 0.00 | 54 | 1015.9 |
| 20260505221509 | 62 | 0 | 0.0 | 0.0 | 0.00 | 0.00 | 0.00 | 54 | 1015.9 |
| 20260505221010 | 62 | 270 | 0.0 | 0.9 | 0.00 | 0.00 | 0.00 | 54 | 1015.9 |
| 20260505220509 | 62 | 282 | 0.0 | 0.9 | 0.00 | 0.00 | 0.00 | 55 | 1015.9 |
| 20260505215511 | 62 | 341 | 0.9 | 1.7 | 0.00 | 0.00 | 0.00 | 55 | 1015.9 |
| 20260505214009 | 61 | 69 | 0.9 | 2.6 | 0.00 | 0.00 | 0.00 | 61 | 1015.9 |
| 20260505213509 | 61 | 67 | 1.7 | 2.6 | 0.00 | 0.00 | 0.00 | 62 | 1015.9 |
| 20260505213009 | 62 | 26 | 1.7 | 2.6 | 0.00 | 0.00 | 0.00 | 62 | 1015.9 |
| 20260505212509 | 61 | 340 | 1.7 | 2.6 | 0.00 | 0.00 | 0.00 | 62 | 1016.0 |
| 20260505212010 | 61 | 316 | 1.7 | 2.6 | 0.00 | 0.00 | 0.00 | 63 | 1016.1 |
| 20260505211509 | 61 | 275 | 1.7 | 1.7 | 0.00 | 0.00 | 0.00 | 64 | 1016.0 |
| 20260505211009 | 62 | 252 | 0.9 | 1.7 | 0.00 | 0.00 | 0.00 | 63 | 1016.1 |
| 20260505210509 | 63 | 0 | 0.0 | 0.0 | 0.00 | 0.00 | 0.00 | 61 | 1016.2 |
| 20260505210017 | 63 | 0 | 0.0 | 0.0 | 0.00 | 0.00 | 0.00 | 59 | 1016.1 |
| 20260505205510 | 63 | 0 | 0.0 | 0.0 | 0.00 | 0.00 | 0.00 | 60 | 1015.9 |
| 20260505205009 | 63 | 0 | 0.0 | 0.0 | 0.00 | 0.00 | 0.00 | 59 | 1015.9 |
| 20260505204510 | 63 | 0 | 0.0 | 0.0 | 0.00 | 0.00 | 0.00 | 60 | 1015.9 |
| 20260505203509 | 63 | 0 | 0.0 | 0.0 | 0.00 | 0.00 | 0.00 | 60 | 1016.0 |
| 20260505203009 | 63 | 0 | 0.0 | 0.0 | 0.00 | 0.00 | 0.00 | 61 | 1016.2 |
| 20260505202510 | 63 | 0 | 0.0 | 0.0 | 0.00 | 0.00 | 0.00 | 62 | 1016.2 |
| 20260505202009 | 63 | 0 | 0.0 | 0.0 | 0.00 | 0.00 | 0.00 | 62 | 1016.0 |
| 20260505201009 | 63 | 42 | 0.0 | 1.7 | 0.00 | 0.00 | 0.00 | 62 | 1016.1 |
| 20260505200010 | 63 | 75 | 0.0 | 0.9 | 0.00 | 0.00 | 0.00 | 62 | 1016.2 |
| 20260505195510 | 63 | 314 | 0.0 | 0.9 | 0.00 | 0.00 | 0.00 | 62 | 1016.1 |
| 20260505194009 | 64 | 314 | 0.0 | 1.7 | 0.00 | 0.00 | 0.00 | 54 | 1016.0 |
| 20260505193511 | 64 | 0 | 0.0 | 0.0 | 0.00 | 0.00 | 0.00 | 53 | 1016.1 |
| 20260505192509 | 64 | 237 | 0.0 | 1.7 | 0.00 | 0.00 | 0.00 | 52 | 1016.1 |
| 20260505192009 | 64 | 225 | 0.9 | 1.7 | 0.00 | 0.00 | 0.00 | 52 | 1016.1 |
| 20260505191510 | 64 | 151 | 0.9 | 1.7 | 0.00 | 0.00 | 0.00 | 51 | 1016.1 |
| 20260505190510 | 64 | 91 | 1.7 | 3.5 | 0.00 | 0.00 | 0.00 | 50 | 1016.0 |
| 20260505190010 | 64 | 76 | 2.6 | 3.5 | 0.00 | 0.00 | 0.00 | 51 | 1016.1 |
| 20260505185510 | 64 | 99 | 3.5 | 3.5 | 0.00 | 0.00 | 0.00 | 52 | 1016.0 |
| 20260505185010 | 64 | 123 | 2.6 | 3.5 | 0.00 | 0.00 | 0.00 | 52 | 1015.9 |
| 20260505184510 | 65 | 122 | 1.7 | 2.6 | 0.00 | 0.00 | 0.00 | 52 | 1015.8 |
| 20260505184009 | 65 | 130 | 1.7 | 1.7 | 0.00 | 0.00 | 0.00 | 52 | 1015.8 |
| 20260505182510 | 65 | 299 | 0.9 | 1.7 | 0.00 | 0.00 | 0.00 | 53 | 1015.8 |
| 20260505182008 | 65 | 296 | 0.9 | 1.7 | 0.00 | 0.00 | 0.00 | 52 | 1015.7 |
| 20260505181513 | 65 | 292 | 0.9 | 1.7 | 0.00 | 0.00 | 0.00 | 53 | 1015.7 |
| 20260505180509 | 66 | 131 | 1.7 | 2.6 | 0.00 | 0.00 | 0.00 | 51 | 1015.5 |
| 20260505180010 | 66 | 62 | 1.7 | 2.6 | 0.00 | 0.00 | 0.00 | 50 | 1015.6 |
| 20260505175509 | 66 | 62 | 1.7 | 2.6 | 0.00 | 0.00 | 0.00 | 50 | 1015.5 |
| 20260505175009 | 67 | 90 | 1.7 | 2.6 | 0.00 | 0.00 | 0.00 | 50 | 1015.5 |
| 20260505174510 | 67 | 95 | 1.7 | 3.5 | 0.00 | 0.00 | 0.00 | 48 | 1015.7 |
| 20260505174009 | 67 | 118 | 3.5 | 4.3 | 0.00 | 0.00 | 0.00 | 50 | 1015.4 |
| 20260505173518 | 67 | 124 | 3.5 | 4.3 | 0.00 | 0.00 | 0.00 | 49 | 1015.3 |
| 20260505173009 | 67 | 117 | 4.3 | 5.2 | 0.00 | 0.00 | 0.00 | 48 | 1015.1 |
| 20260505172509 | 68 | 125 | 3.5 | 5.2 | 0.00 | 0.00 | 0.00 | 47 | 1015.2 |
| 20260505172009 | 68 | 130 | 3.5 | 5.2 | 0.00 | 0.00 | 0.00 | 47 | 1015.2 |
| 20260505171509 | 68 | 119 | 5.2 | 7.0 | 0.00 | 0.00 | 0.00 | 44 | 1015.3 |
| 20260505171008 | 68 | 125 | 6.1 | 7.8 | 0.00 | 0.00 | 0.00 | 43 | 1015.4 |
| 20260505170009 | 69 | 115 | 6.1 | 7.8 | 0.00 | 0.00 | 0.00 | 42 | 1015.3 |
| 20260505165508 | 69 | 118 | 6.1 | 7.8 | 0.00 | 0.00 | 0.00 | 42 | 1015.3 |
| 20260505165009 | 69 | 130 | 7.0 | 9.6 | 0.00 | 0.00 | 0.00 | 42 | 1015.3 |
| 20260505164509 | 70 | 112 | 7.8 | 9.6 | 0.00 | 0.00 | 0.00 | 41 | 1015.4 |
| 20260505164009 | 70 | 109 | 7.0 | 8.7 | 0.00 | 0.00 | 0.00 | 42 | 1015.5 |
| 20260505163510 | 70 | 120 | 6.1 | 7.8 | 0.00 | 0.00 | 0.00 | 42 | 1015.5 |
| 20260505163009 | 70 | 124 | 7.0 | 9.6 | 0.00 | 0.00 | 0.00 | 41 | 1015.3 |
| 20260505162009 | 70 | 141 | 7.8 | 9.6 | 0.00 | 0.00 | 0.00 | 42 | 1015.3 |
| 20260505161509 | 70 | 132 | 9.6 | 12.2 | 0.00 | 0.00 | 0.00 | 42 | 1015.4 |
| 20260505161009 | 71 | 120 | 7.8 | 12.2 | 0.00 | 0.00 | 0.00 | 42 | 1015.3 |
| 20260505160509 | 72 | 121 | 6.1 | 8.7 | 0.00 | 0.00 | 0.00 | 42 | 1015.2 |
| 20260505152009 | 74 | 202 | 4.3 | 8.7 | 0.00 | 0.00 | 0.00 | 32 | 1015.2 |
| 20260505151509 | 74 | 246 | 4.3 | 6.1 | 0.00 | 0.00 | 0.00 | 27 | 1015.2 |
| 20260505151010 | 74 | 254 | 4.3 | 6.1 | 0.00 | 0.00 | 0.00 | 27 | 1015.0 |
| 20260505150509 | 74 | 239 | 3.5 | 6.1 | 0.00 | 0.00 | 0.00 | 27 | 1015.0 |
| 20260505140510 | 74 | 200 | 4.3 | 6.1 | 0.00 | 0.00 | 0.00 | 25 | 1015.3 |
| 20260505125009 | 73 | 221 | 5.2 | 7.0 | 0.00 | 0.00 | 0.00 | 25 | 1015.8 |